Wetterdaten: Sonntag, 15.12.2013
Datum Zeit Temperatur Luftfeuchte Luftdruck Regen Wind Richtung Richtung Taupunkt Windchill Windben
15.12.2013 00:00 0,3 C 97 % 1033,4 hPa 0,0 l/m 0,0 km/h (0 Bft) S-SO 157 -0,1 C -0,4 C 0,0 km/h (0 Bft)
15.12.2013 00:05 0,0 C 97 % 1033,1 hPa 0,0 l/m 0,0 km/h (0 Bft) S-SO 157 -0,4 C -0,4 C 0,0 km/h (0 Bft)
15.12.2013 00:10 -0,2 C 96 % 1033,1 hPa 0,0 l/m 0,0 km/h (0 Bft) S-SO 157 -0,8 C -0,4 C 0,0 km/h (0 Bft)
15.12.2013 00:15 -0,3 C 96 % 1033,1 hPa 0,0 l/m 0,0 km/h (0 Bft) S-SO 157 -0,9 C -0,4 C 0,0 km/h (0 Bft)
15.12.2013 00:20 -0,6 C 96 % 1033,1 hPa 0,0 l/m 0,0 km/h (0 Bft) S-SO 157 -1,2 C -0,4 C 0,0 km/h (0 Bft)
15.12.2013 00:25 -0,8 C 96 % 1033,1 hPa 0,0 l/m 0,0 km/h (0 Bft) S-SO 157 -1,4 C -0,4 C 0,0 km/h (0 Bft)
15.12.2013 00:30 -0,8 C 96 % 1033,1 hPa 0,0 l/m 0,0 km/h (0 Bft) S-SO 157 -1,4 C -0,4 C 0,0 km/h (0 Bft)
15.12.2013 00:35 -0,6 C 96 % 1033,1 hPa 0,0 l/m 0,0 km/h (0 Bft) S-SO 157 -1,2 C -0,4 C 0,0 km/h (0 Bft)
15.12.2013 00:40 -0,7 C 96 % 1033,1 hPa 0,0 l/m 0,0 km/h (0 Bft) S-SO 157 -1,3 C -0,4 C 0,0 km/h (0 Bft)
15.12.2013 00:45 -0,8 C 96 % 1032,8 hPa 0,0 l/m 0,0 km/h (0 Bft) S-SO 157 -1,4 C -0,4 C 0,0 km/h (0 Bft)
15.12.2013 00:50 -1,0 C 96 % 1032,8 hPa 0,0 l/m 0,0 km/h (0 Bft) S-SO 157 -1,6 C -0,4 C 0,0 km/h (0 Bft)
15.12.2013 00:55 -1,3 C 96 % 1032,8 hPa 0,0 l/m 0,0 km/h (0 Bft) S-SO 157 -1,9 C -0,4 C 0,0 km/h (0 Bft)
15.12.2013 01:00 -1,3 C 96 % 1032,8 hPa 0,0 l/m 0,0 km/h (0 Bft) S-SO 157 -1,9 C -0,4 C 0,0 km/h (0 Bft)
15.12.2013 01:05 -0,8 C 96 % 1032,5 hPa 0,0 l/m 0,0 km/h (0 Bft) S-SO 157 -1,4 C -0,4 C 0,0 km/h (0 Bft)
15.12.2013 01:10 -0,8 C 96 % 1032,5 hPa 0,0 l/m 0,0 km/h (0 Bft) S-SO 157 -1,4 C -0,4 C 0,0 km/h (0 Bft)
15.12.2013 01:15 -0,8 C 96 % 1032,5 hPa 0,0 l/m 0,0 km/h (0 Bft) S-SO 157 -1,4 C -0,4 C 0,0 km/h (0 Bft)
15.12.2013 01:20 -1,1 C 96 % 1032,5 hPa 0,0 l/m 0,0 km/h (0 Bft) S-SO 157 -1,7 C -0,4 C 0,0 km/h (0 Bft)
15.12.2013 01:25 -1,3 C 96 % 1032,4 hPa 0,0 l/m 0,0 km/h (0 Bft) S-SO 157 -1,9 C -0,4 C 0,0 km/h (0 Bft)
15.12.2013 01:30 -1,7 C 96 % 1032,4 hPa 0,0 l/m 0,0 km/h (0 Bft) S-SO 157 -2,3 C -0,4 C 0,0 km/h (0 Bft)
15.12.2013 01:35 -1,6 C 96 % 1032,4 hPa 0,0 l/m 0,0 km/h (0 Bft) S-SO 157 -2,2 C -0,4 C 0,0 km/h (0 Bft)
15.12.2013 01:40 -1,9 C 96 % 1032,4 hPa 0,0 l/m 0,0 km/h (0 Bft) S-SO 157 -2,5 C -0,4 C 0,0 km/h (0 Bft)
15.12.2013 01:45 -1,7 C 96 % 1032,5 hPa 0,0 l/m 0,0 km/h (0 Bft) S-SO 157 -2,3 C -0,4 C 0,0 km/h (0 Bft)
15.12.2013 01:50 -1,8 C 96 % 1032,5 hPa 0,0 l/m 0,0 km/h (0 Bft) S-SO 157 -2,4 C -0,4 C 0,0 km/h (0 Bft)
15.12.2013 01:55 -2,1 C 96 % 1032,5 hPa 0,0 l/m 0,0 km/h (0 Bft) S-SO 157 -2,6 C -0,4 C 0,0 km/h (0 Bft)
15.12.2013 02:00 -1,9 C 96 % 1032,5 hPa 0,0 l/m 0,0 km/h (0 Bft) S-SO 157 -2,5 C -0,4 C 0,0 km/h (0 Bft)
15.12.2013 02:05 -2,1 C 96 % 1032,4 hPa 0,0 l/m 0,0 km/h (0 Bft) S-SO 157 -2,6 C -0,4 C 0,0 km/h (0 Bft)
15.12.2013 02:10 -2,1 C 96 % 1032,4 hPa 0,0 l/m 0,0 km/h (0 Bft) S-SO 157 -2,6 C -0,4 C 0,0 km/h (0 Bft)
15.12.2013 02:15 -2,5 C 96 % 1032,4 hPa 0,0 l/m 0,0 km/h (0 Bft) S-SO 157 -3,0 C -0,4 C 0,0 km/h (0 Bft)
15.12.2013 02:20 -2,7 C 96 % 1032,4 hPa 0,0 l/m 0,0 km/h (0 Bft) S-SO 157 -3,2 C -0,4 C 0,0 km/h (0 Bft)
15.12.2013 02:25 -2,3 C 96 % 1031,8 hPa 0,0 l/m 0,0 km/h (0 Bft) S-SO 157 -2,8 C -0,4 C 0,0 km/h (0 Bft)
15.12.2013 02:30 -2,5 C 96 % 1031,8 hPa 0,0 l/m 0,0 km/h (0 Bft) S-SO 157 -3,0 C -0,4 C 0,0 km/h (0 Bft)
15.12.2013 02:35 -2,6 C 96 % 1031,8 hPa 0,0 l/m 0,0 km/h (0 Bft) S-SO 157 -3,1 C -0,4 C 0,0 km/h (0 Bft)
15.12.2013 02:40 -2,5 C 96 % 1031,8 hPa 0,0 l/m 0,0 km/h (0 Bft) S-SO 157 -3,0 C -0,4 C 0,0 km/h (0 Bft)
15.12.2013 02:45 -2,3 C 96 % 1032,0 hPa 0,0 l/m 0,0 km/h (0 Bft) S-SO 157 -2,8 C -0,4 C 0,0 km/h (0 Bft)
15.12.2013 02:50 -2,2 C 96 % 1032,0 hPa 0,0 l/m 0,0 km/h (0 Bft) S-SO 157 -2,7 C -0,4 C 0,0 km/h (0 Bft)
15.12.2013 02:55 -2,3 C 96 % 1032,0 hPa 0,0 l/m 0,0 km/h (0 Bft) S-SO 157 -2,8 C -0,4 C 0,0 km/h (0 Bft)
15.12.2013 03:00 -2,5 C 96 % 1032,0 hPa 0,0 l/m 0,0 km/h (0 Bft) S-SO 157 -3,0 C -0,4 C 0,0 km/h (0 Bft)
15.12.2013 03:05 -2,2 C 96 % 1032,2 hPa 0,0 l/m 0,0 km/h (0 Bft) S-SO 157 -2,7 C -0,4 C 0,0 km/h (0 Bft)
15.12.2013 03:10 -2,5 C 96 % 1032,2 hPa 0,0 l/m 0,0 km/h (0 Bft) S-SO 157 -3,0 C -0,4 C 0,0 km/h (0 Bft)
15.12.2013 03:15 -2,6 C 96 % 1032,2 hPa 0,0 l/m 0,0 km/h (0 Bft) S-SO 157 -3,1 C -0,4 C 0,0 km/h (0 Bft)
15.12.2013 03:20 -2,6 C 96 % 1032,2 hPa 0,0 l/m 0,0 km/h (0 Bft) S-SO 157 -3,1 C -0,4 C 0,0 km/h (0 Bft)
15.12.2013 03:25 -2,0 C 96 % 1032,6 hPa 0,0 l/m 0,0 km/h (0 Bft) S-SO 157 -2,6 C -0,4 C 0,0 km/h (0 Bft)
15.12.2013 03:30 -1,8 C 96 % 1032,6 hPa 0,0 l/m 0,0 km/h (0 Bft) S-SO 157 -2,4 C -0,4 C 0,0 km/h (0 Bft)
15.12.2013 03:35 -1,8 C 97 % 1032,6 hPa 0,0 l/m 0,0 km/h (0 Bft) S-SO 157 -2,2 C -0,4 C 0,0 km/h (0 Bft)
15.12.2013 03:40 -2,1 C 96 % 1032,6 hPa 0,0 l/m 0,0 km/h (0 Bft) S-SO 157 -2,6 C -0,4 C 0,0 km/h (0 Bft)
15.12.2013 03:45 -2,2 C 96 % 1032,6 hPa 0,0 l/m 0,0 km/h (0 Bft) S-SO 157 -2,7 C -0,4 C 0,0 km/h (0 Bft)
15.12.2013 03:50 -2,4 C 96 % 1032,6 hPa 0,0 l/m 0,0 km/h (0 Bft) S-SO 157 -2,9 C -0,4 C 0,0 km/h (0 Bft)
15.12.2013 03:55 -2,8 C 96 % 1032,6 hPa 0,0 l/m 0,0 km/h (0 Bft) S-SO 157 -3,3 C -0,4 C 0,0 km/h (0 Bft)
15.12.2013 04:00 -3,3 C 96 % 1032,6 hPa 0,0 l/m 0,0 km/h (0 Bft) S-SO 157 -3,8 C -0,4 C 0,0 km/h (0 Bft)
15.12.2013 04:05 -2,8 C 96 % 1032,1 hPa 0,0 l/m 0,0 km/h (0 Bft) S-SO 157 -3,3 C -0,4 C 0,0 km/h (0 Bft)
15.12.2013 04:08 -2,7 C 96 % 1032,1 hPa 0,0 l/m 0,0 km/h (0 Bft) S-SO 157 -3,2 C -0,4 C 0,0 km/h (0 Bft)
15.12.2013 04:10 -2,7 C 96 % 1032,1 hPa 0,0 l/m 0,0 km/h (0 Bft) S-SO 157 -3,2 C -0,4 C 0,0 km/h (0 Bft)
15.12.2013 04:15 -2,8 C 96 % 1032,1 hPa 0,0 l/m 0,0 km/h (0 Bft) S-SO 157 -3,3 C -0,4 C 0,0 km/h (0 Bft)
15.12.2013 04:20 -2,7 C 96 % 1032,1 hPa 0,0 l/m 0,0 km/h (0 Bft) S-SO 157 -3,2 C -0,4 C 0,0 km/h (0 Bft)
15.12.2013 04:25 -2,5 C 96 % 1031,8 hPa 0,0 l/m 0,0 km/h (0 Bft) S-SO 157 -3,0 C -0,4 C 0,0 km/h (0 Bft)
15.12.2013 04:30 -2,8 C 96 % 1031,8 hPa 0,0 l/m 0,0 km/h (0 Bft) S-SO 157 -3,3 C -0,4 C 0,0 km/h (0 Bft)
15.12.2013 04:35 -2,5 C 96 % 1031,8 hPa 0,0 l/m 0,0 km/h (0 Bft) S-SO 157 -3,0 C -0,4 C 0,0 km/h (0 Bft)
15.12.2013 04:40 -2,9 C 96 % 1031,8 hPa 0,0 l/m 0,0 km/h (0 Bft) S-SO 157 -3,4 C -0,4 C 0,0 km/h (0 Bft)
15.12.2013 04:45 -2,9 C 96 % 1031,6 hPa 0,0 l/m 0,0 km/h (0 Bft) S-SO 157 -3,4 C -0,4 C 0,0 km/h (0 Bft)
15.12.2013 04:50 -2,7 C 96 % 1031,6 hPa 0,0 l/m 0,0 km/h (0 Bft) S-SO 157 -3,2 C -0,4 C 0,0 km/h (0 Bft)
15.12.2013 04:55 -2,8 C 96 % 1031,6 hPa 0,0 l/m 0,0 km/h (0 Bft) S-SO 157 -3,3 C -0,4 C 0,0 km/h (0 Bft)
15.12.2013 05:00 -2,9 C 96 % 1031,6 hPa 0,0 l/m 0,0 km/h (0 Bft) S-SO 157 -3,4 C -0,4 C 0,0 km/h (0 Bft)
15.12.2013 05:05 -2,6 C 96 % 1031,6 hPa 0,0 l/m 0,0 km/h (0 Bft) S-SO 157 -3,1 C -0,4 C 0,0 km/h (0 Bft)
15.12.2013 05:10 -2,6 C 96 % 1031,6 hPa 0,0 l/m 0,0 km/h (0 Bft) S-SO 157 -3,1 C -0,4 C 0,0 km/h (0 Bft)
15.12.2013 05:15 -2,2 C 96 % 1031,6 hPa 0,0 l/m 0,0 km/h (0 Bft) S-SO 157 -2,7 C -0,4 C 0,0 km/h (0 Bft)
15.12.2013 05:20 -2,1 C 96 % 1031,6 hPa 0,0 l/m 0,0 km/h (0 Bft) S-SO 157 -2,6 C -0,4 C 0,0 km/h (0 Bft)
15.12.2013 05:25 -2,0 C 96 % 1031,6 hPa 0,0 l/m 0,0 km/h (0 Bft) S-SO 157 -2,6 C -0,4 C 0,0 km/h (0 Bft)
15.12.2013 05:30 -2,1 C 96 % 1031,6 hPa 0,0 l/m 0,0 km/h (0 Bft) S-SO 157 -2,6 C -0,4 C 0,0 km/h (0 Bft)
15.12.2013 05:35 -1,9 C 96 % 1031,6 hPa 0,0 l/m 0,0 km/h (0 Bft) S-SO 157 -2,5 C -0,4 C 0,0 km/h (0 Bft)
15.12.2013 05:40 -1,9 C 96 % 1031,6 hPa 0,0 l/m 0,0 km/h (0 Bft) S-SO 157 -2,5 C -0,4 C 0,0 km/h (0 Bft)
15.12.2013 05:45 -2,0 C 96 % 1031,4 hPa 0,0 l/m 0,0 km/h (0 Bft) S-SO 157 -2,6 C -0,4 C 0,0 km/h (0 Bft)
15.12.2013 05:50 -2,1 C 96 % 1031,4 hPa 0,0 l/m 0,0 km/h (0 Bft) S-SO 157 -2,6 C -0,4 C 0,0 km/h (0 Bft)
15.12.2013 05:55 -2,2 C 96 % 1031,4 hPa 0,0 l/m 0,0 km/h (0 Bft) S-SO 157 -2,7 C -0,4 C 0,0 km/h (0 Bft)
15.12.2013 06:00 -2,5 C 96 % 1031,4 hPa 0,0 l/m 0,0 km/h (0 Bft) S-SO 157 -3,0 C -0,4 C 0,0 km/h (0 Bft)
15.12.2013 06:05 -2,9 C 96 % 1031,4 hPa 0,0 l/m 0,0 km/h (0 Bft) S-SO 157 -3,4 C -0,4 C 0,0 km/h (0 Bft)
15.12.2013 06:10 -2,9 C 96 % 1031,4 hPa 0,0 l/m 0,0 km/h (0 Bft) S-SO 157 -3,4 C -0,4 C 0,0 km/h (0 Bft)
15.12.2013 06:15 -3,0 C 96 % 1031,4 hPa 0,0 l/m 0,0 km/h (0 Bft) S-SO 157 -3,5 C -0,4 C 0,0 km/h (0 Bft)
15.12.2013 06:20 -3,0 C 96 % 1031,4 hPa 0,0 l/m 0,0 km/h (0 Bft) S-SO 157 -3,5 C -0,4 C 0,0 km/h (0 Bft)
15.12.2013 06:25 -2,9 C 96 % 1031,3 hPa 0,0 l/m 0,0 km/h (0 Bft) S-SO 157 -3,4 C -0,4 C 0,0 km/h (0 Bft)
15.12.2013 06:30 -3,2 C 96 % 1031,3 hPa 0,0 l/m 0,0 km/h (0 Bft) S-SO 157 -3,7 C -0,4 C 0,0 km/h (0 Bft)
15.12.2013 06:35 -3,2 C 96 % 1031,3 hPa 0,0 l/m 0,0 km/h (0 Bft) S-SO 157 -3,7 C -0,4 C 0,0 km/h (0 Bft)
15.12.2013 06:40 -3,3 C 96 % 1031,3 hPa 0,0 l/m 0,0 km/h (0 Bft) S-SO 157 -3,8 C -0,4 C 0,0 km/h (0 Bft)
15.12.2013 06:45 -3,5 C 96 % 1031,7 hPa 0,0 l/m 0,0 km/h (0 Bft) S-SO 157 -4,0 C -0,4 C 0,0 km/h (0 Bft)
15.12.2013 06:50 -3,9 C 96 % 1031,7 hPa 0,0 l/m 0,0 km/h (0 Bft) S-SO 157 -4,4 C -0,4 C 0,0 km/h (0 Bft)
15.12.2013 06:55 -3,7 C 96 % 1031,7 hPa 0,0 l/m 0,0 km/h (0 Bft) S-SO 157 -4,2 C -0,4 C 0,0 km/h (0 Bft)
15.12.2013 07:00 -3,4 C 96 % 1031,7 hPa 0,0 l/m 0,0 km/h (0 Bft) S-SO 157 -3,9 C -0,4 C 0,0 km/h (0 Bft)
15.12.2013 07:05 -3,5 C 96 % 1031,5 hPa 0,0 l/m 0,0 km/h (0 Bft) S-SO 157 -4,0 C -0,4 C 0,0 km/h (0 Bft)
15.12.2013 07:10 -3,3 C 96 % 1031,5 hPa 0,0 l/m 0,0 km/h (0 Bft) S-SO 157 -3,8 C -0,4 C 0,0 km/h (0 Bft)
15.12.2013 07:15 -3,4 C 96 % 1031,5 hPa 0,0 l/m 0,0 km/h (0 Bft) S-SO 157 -3,9 C -0,4 C 0,0 km/h (0 Bft)
15.12.2013 07:20 -3,8 C 95 % 1031,5 hPa 0,0 l/m 0,0 km/h (0 Bft) S-SO 157 -4,5 C -0,4 C 0,0 km/h (0 Bft)
15.12.2013 07:25 -3,9 C 95 % 1031,7 hPa 0,0 l/m 0,0 km/h (0 Bft) S-SO 157 -4,6 C -0,4 C 0,0 km/h (0 Bft)
15.12.2013 07:30 -4,1 C 95 % 1031,7 hPa 0,0 l/m 0,0 km/h (0 Bft) S-SO 157 -4,8 C -0,4 C 0,0 km/h (0 Bft)
15.12.2013 07:35 -4,3 C 95 % 1031,7 hPa 0,0 l/m 0,0 km/h (0 Bft) S-SO 157 -5,0 C -0,4 C 0,0 km/h (0 Bft)
15.12.2013 07:40 -4,2 C 95 % 1031,7 hPa 0,0 l/m 0,0 km/h (0 Bft) S-SO 157 -4,9 C -0,4 C 0,0 km/h (0 Bft)
15.12.2013 07:45 -4,7 C 95 % 1031,6 hPa 0,0 l/m 0,0 km/h (0 Bft) S-SO 157 -5,4 C -0,4 C 0,0 km/h (0 Bft)
15.12.2013 07:50 -4,5 C 95 % 1031,6 hPa 0,0 l/m 0,0 km/h (0 Bft) S-SO 157 -5,2 C -0,4 C 0,0 km/h (0 Bft)
15.12.2013 07:55 -4,9 C 95 % 1031,6 hPa 0,0 l/m 0,0 km/h (0 Bft) S-SO 157 -5,6 C -0,4 C 0,0 km/h (0 Bft)
15.12.2013 08:00 -4,5 C 95 % 1031,6 hPa 0,0 l/m 0,0 km/h (0 Bft) S-SO 157 -5,2 C -0,4 C 0,0 km/h (0 Bft)
15.12.2013 08:05 -4,2 C 95 % 1031,5 hPa 0,0 l/m 0,0 km/h (0 Bft) S-SO 157 -4,9 C -0,4 C 0,0 km/h (0 Bft)
15.12.2013 08:10 -3,7 C 95 % 1031,5 hPa 0,0 l/m 0,0 km/h (0 Bft) S-SO 157 -4,4 C -0,4 C 0,0 km/h (0 Bft)
15.12.2013 08:15 -3,9 C 95 % 1031,5 hPa 0,0 l/m 0,0 km/h (0 Bft) S-SO 157 -4,6 C -0,4 C 0,0 km/h (0 Bft)
15.12.2013 08:20 -4,1 C 95 % 1031,5 hPa 0,0 l/m 0,0 km/h (0 Bft) S-SO 157 -4,8 C -0,4 C 0,0 km/h (0 Bft)
15.12.2013 08:25 -3,4 C 95 % 1031,8 hPa 0,0 l/m 0,0 km/h (0 Bft) S-SO 157 -4,1 C -0,4 C 0,0 km/h (0 Bft)
15.12.2013 08:30 -3,4 C 95 % 1031,8 hPa 0,0 l/m 0,0 km/h (0 Bft) S-SO 157 -4,1 C -0,4 C 0,0 km/h (0 Bft)
15.12.2013 08:35 -3,6 C 95 % 1031,8 hPa 0,0 l/m 0,0 km/h (0 Bft) S-SO 157 -4,3 C -0,4 C 0,0 km/h (0 Bft)
15.12.2013 08:40 -3,7 C 95 % 1031,8 hPa 0,0 l/m 0,0 km/h (0 Bft) S-SO 157 -4,4 C -0,4 C 0,0 km/h (0 Bft)
15.12.2013 08:45 -3,5 C 95 % 1031,7 hPa 0,0 l/m 0,0 km/h (0 Bft) S-SO 157 -4,2 C -0,4 C 0,0 km/h (0 Bft)
15.12.2013 08:50 -3,2 C 95 % 1031,7 hPa 0,0 l/m 0,0 km/h (0 Bft) S-SO 157 -3,9 C -0,4 C 0,0 km/h (0 Bft)
15.12.2013 08:55 -2,9 C 95 % 1031,7 hPa 0,0 l/m 0,0 km/h (0 Bft) S-SO 157 -3,6 C -0,4 C 0,0 km/h (0 Bft)
15.12.2013 09:00 -2,8 C 95 % 1031,7 hPa 0,0 l/m 0,0 km/h (0 Bft) S-SO 157 -3,5 C -0,4 C 0,0 km/h (0 Bft)
15.12.2013 09:05 -2,4 C 95 % 1031,6 hPa 0,0 l/m 0,0 km/h (0 Bft) S-SO 157 -3,1 C -0,4 C 0,0 km/h (0 Bft)
15.12.2013 09:10 -2,2 C 95 % 1031,6 hPa 0,0 l/m 0,0 km/h (0 Bft) S-SO 157 -2,9 C -0,4 C 0,0 km/h (0 Bft)
15.12.2013 09:15 -1,9 C 95 % 1031,6 hPa 0,0 l/m 0,0 km/h (0 Bft) S-SO 157 -2,6 C -0,4 C 0,0 km/h (0 Bft)
15.12.2013 09:20 -1,9 C 95 % 1031,6 hPa 0,0 l/m 0,0 km/h (0 Bft) S-SO 157 -2,6 C -0,4 C 0,0 km/h (0 Bft)
15.12.2013 09:25 -1,7 C 95 % 1031,6 hPa 0,0 l/m 0,0 km/h (0 Bft) S-SO 157 -2,4 C -0,4 C 0,0 km/h (0 Bft)
15.12.2013 09:30 -1,5 C 95 % 1031,6 hPa 0,0 l/m 0,0 km/h (0 Bft) S-SO 157 -2,2 C -0,4 C 0,0 km/h (0 Bft)
15.12.2013 09:35 -1,2 C 95 % 1031,6 hPa 0,0 l/m 0,0 km/h (0 Bft) S-SO 157 -1,9 C -0,4 C 0,0 km/h (0 Bft)
15.12.2013 09:40 -1,1 C 95 % 1031,6 hPa 0,0 l/m 0,0 km/h (0 Bft) S-SO 157 -1,8 C -0,4 C 0,0 km/h (0 Bft)
15.12.2013 09:45 -0,9 C 95 % 1031,5 hPa 0,0 l/m 0,0 km/h (0 Bft) S-SO 157 -1,6 C -0,4 C 0,0 km/h (0 Bft)
15.12.2013 09:50 -0,8 C 95 % 1031,5 hPa 0,0 l/m 0,0 km/h (0 Bft) S-SO 157 -1,5 C -0,4 C 0,0 km/h (0 Bft)
15.12.2013 09:55 -0,5 C 95 % 1031,5 hPa 0,0 l/m 0,0 km/h (0 Bft) S-SO 157 -1,2 C -0,4 C 0,0 km/h (0 Bft)
15.12.2013 10:00 -0,2 C 95 % 1031,5 hPa 0,0 l/m 0,0 km/h (0 Bft) S-SO 157 -0,9 C -0,4 C 0,0 km/h (0 Bft)
15.12.2013 10:03 0,0 C 95 % 1031,6 hPa 0,0 l/m 0,0 km/h (0 Bft) S-SO 157 -0,7 C -0,4 C 0,0 km/h (0 Bft)
15.12.2013 10:05 0,0 C 95 % 1031,6 hPa 0,0 l/m 0,0 km/h (0 Bft) S-SO 157 -0,7 C -0,4 C 0,0 km/h (0 Bft)
15.12.2013 10:10 0,0 C 95 % 1031,6 hPa 0,0 l/m 0,0 km/h (0 Bft) S-SO 157 -0,7 C -0,4 C 0,0 km/h (0 Bft)
15.12.2013 10:15 0,2 C 95 % 1031,6 hPa 0,0 l/m 0,0 km/h (0 Bft) S-SO 157 -0,5 C -0,4 C 0,0 km/h (0 Bft)
15.12.2013 10:20 0,3 C 95 % 1031,6 hPa 0,0 l/m 0,0 km/h (0 Bft) S-SO 157 -0,4 C -0,4 C 0,0 km/h (0 Bft)
15.12.2013 10:25 0,5 C 95 % 1031,6 hPa 0,0 l/m 0,0 km/h (0 Bft) S-SO 157 -0,2 C -0,4 C 0,0 km/h (0 Bft)
15.12.2013 10:30 0,6 C 95 % 1031,6 hPa 0,0 l/m 0,0 km/h (0 Bft) S-SO 157 -0,1 C -0,4 C 0,0 km/h (0 Bft)
15.12.2013 10:35 0,9 C 93 % 1031,6 hPa 0,0 l/m 0,0 km/h (0 Bft) S-SO 157 -0,1 C -0,4 C 0,0 km/h (0 Bft)
15.12.2013 10:40 1,1 C 92 % 1031,6 hPa 0,0 l/m 0,0 km/h (0 Bft) S-SO 157 -0,1 C -0,4 C 0,0 km/h (0 Bft)
15.12.2013 10:45 1,3 C 91 % 1031,9 hPa 0,0 l/m 0,0 km/h (0 Bft) S-SO 157 -0,0 C -0,4 C 0,0 km/h (0 Bft)
15.12.2013 10:50 1,5 C 91 % 1031,9 hPa 0,0 l/m 0,0 km/h (0 Bft) S-SO 157 0,2 C -0,4 C 0,0 km/h (0 Bft)
15.12.2013 10:55 1,7 C 88 % 1031,9 hPa 0,0 l/m 0,0 km/h (0 Bft) S-SO 157 -0,1 C -0,4 C 0,0 km/h (0 Bft)
15.12.2013 11:00 1,9 C 87 % 1031,9 hPa 0,0 l/m 0,0 km/h (0 Bft) S-SO 157 -0,0 C -0,4 C 0,0 km/h (0 Bft)
15.12.2013 11:05 2,1 C 85 % 1031,9 hPa 0,0 l/m 0,0 km/h (0 Bft) S-SO 157 -0,2 C -0,4 C 0,0 km/h (0 Bft)
15.12.2013 11:10 2,3 C 86 % 1031,9 hPa 0,0 l/m 0,0 km/h (0 Bft) S-SO 157 0,2 C -0,4 C 0,0 km/h (0 Bft)
15.12.2013 11:15 2,5 C 86 % 1031,9 hPa 0,0 l/m 0,0 km/h (0 Bft) S-SO 157 0,4 C -0,4 C 0,0 km/h (0 Bft)
15.12.2013 11:20 2,7 C 86 % 1031,9 hPa 0,0 l/m 0,0 km/h (0 Bft) S-SO 157 0,6 C -0,4 C 0,0 km/h (0 Bft)
15.12.2013 11:25 2,8 C 82 % 1031,8 hPa 0,0 l/m 0,0 km/h (0 Bft) S-SO 157 0,0 C -0,4 C 0,0 km/h (0 Bft)
15.12.2013 11:30 2,9 C 75 % 1031,8 hPa 0,0 l/m 0,0 km/h (0 Bft) S-SO 157 -1,1 C -0,4 C 0,0 km/h (0 Bft)
15.12.2013 11:35 3,2 C 73 % 1031,8 hPa 0,0 l/m 0,0 km/h (0 Bft) S-SO 157 -1,2 C -0,4 C 0,0 km/h (0 Bft)
15.12.2013 11:40 3,1 C 73 % 1031,8 hPa 0,0 l/m 0,0 km/h (0 Bft) S-SO 157 -1,3 C -0,4 C 0,0 km/h (0 Bft)
15.12.2013 11:45 3,1 C 82 % 1031,9 hPa 0,0 l/m 0,0 km/h (0 Bft) S-SO 157 0,3 C -0,4 C 0,0 km/h (0 Bft)
15.12.2013 11:50 3,3 C 83 % 1031,9 hPa 0,0 l/m 0,0 km/h (0 Bft) S-SO 157 0,7 C -0,4 C 0,0 km/h (0 Bft)
15.12.2013 11:55 3,6 C 85 % 1031,9 hPa 0,0 l/m 0,0 km/h (0 Bft) S-SO 157 1,3 C -0,4 C 0,0 km/h (0 Bft)
15.12.2013 12:00 3,5 C 83 % 1031,9 hPa 0,0 l/m 0,0 km/h (0 Bft) S-SO 157 0,9 C -0,4 C 0,0 km/h (0 Bft)
15.12.2013 12:05 3,4 C 78 % 1032,1 hPa 0,0 l/m 0,0 km/h (0 Bft) S-SO 157 -0,1 C -0,4 C 0,0 km/h (0 Bft)
15.12.2013 12:10 3,6 C 81 % 1032,1 hPa 0,0 l/m 0,0 km/h (0 Bft) S-SO 157 0,7 C -0,4 C 0,0 km/h (0 Bft)
15.12.2013 12:15 3,7 C 81 % 1032,1 hPa 0,0 l/m 0,0 km/h (0 Bft) S-SO 157 0,7 C -0,4 C 0,0 km/h (0 Bft)
15.12.2013 12:20 3,8 C 81 % 1032,1 hPa 0,0 l/m 0,0 km/h (0 Bft) S-SO 157 0,8 C -0,4 C 0,0 km/h (0 Bft)
15.12.2013 12:25 4,2 C 84 % 1031,9 hPa 0,0 l/m 0,0 km/h (0 Bft) S-SO 157 1,7 C -0,4 C 0,0 km/h (0 Bft)
15.12.2013 12:30 4,2 C 85 % 1031,9 hPa 0,0 l/m 0,0 km/h (0 Bft) S-SO 157 1,9 C -0,4 C 0,0 km/h (0 Bft)
15.12.2013 12:35 4,0 C 82 % 1031,9 hPa 0,0 l/m 0,0 km/h (0 Bft) S-SO 157 1,2 C -0,4 C 0,0 km/h (0 Bft)
15.12.2013 12:40 4,2 C 84 % 1031,9 hPa 0,0 l/m 0,0 km/h (0 Bft) S-SO 157 1,7 C -0,4 C 0,0 km/h (0 Bft)
15.12.2013 12:45 4,1 C 80 % 1032,2 hPa 0,0 l/m 0,0 km/h (0 Bft) S-SO 157 1,0 C -0,4 C 0,0 km/h (0 Bft)
15.12.2013 12:50 3,9 C 81 % 1032,2 hPa 0,0 l/m 0,0 km/h (0 Bft) S-SO 157 0,9 C -0,4 C 0,0 km/h (0 Bft)
15.12.2013 12:55 4,2 C 83 % 1032,2 hPa 0,0 l/m 0,0 km/h (0 Bft) S-SO 157 1,6 C -0,4 C 0,0 km/h (0 Bft)
15.12.2013 13:00 4,4 C 85 % 1032,2 hPa 0,0 l/m 0,0 km/h (0 Bft) S-SO 157 2,1 C -0,4 C 0,0 km/h (0 Bft)
15.12.2013 13:05 4,6 C 87 % 1032,2 hPa 0,0 l/m 0,0 km/h (0 Bft) S-SO 157 2,6 C -0,4 C 0,0 km/h (0 Bft)
15.12.2013 13:10 4,3 C 86 % 1032,2 hPa 0,0 l/m 0,0 km/h (0 Bft) S-SO 157 2,2 C -0,4 C 0,0 km/h (0 Bft)
15.12.2013 13:15 3,7 C 85 % 1032,2 hPa 0,0 l/m 0,0 km/h (0 Bft) S-SO 157 1,4 C -0,4 C 0,0 km/h (0 Bft)
15.12.2013 13:20 3,6 C 86 % 1032,2 hPa 0,0 l/m 0,0 km/h (0 Bft) S-SO 157 1,5 C -0,4 C 0,0 km/h (0 Bft)
15.12.2013 13:25 3,9 C 87 % 1032,2 hPa 0,0 l/m 0,0 km/h (0 Bft) S-SO 157 1,9 C -0,4 C 0,0 km/h (0 Bft)
15.12.2013 13:30 4,3 C 88 % 1032,2 hPa 0,0 l/m 0,0 km/h (0 Bft) S-SO 157 2,5 C -0,4 C 0,0 km/h (0 Bft)
15.12.2013 13:35 4,9 C 88 % 1032,2 hPa 0,0 l/m 0,0 km/h (0 Bft) S-SO 157 3,1 C -0,4 C 0,0 km/h (0 Bft)
15.12.2013 13:40 5,1 C 88 % 1032,2 hPa 0,0 l/m 0,0 km/h (0 Bft) S-SO 157 3,3 C -0,4 C 0,0 km/h (0 Bft)
15.12.2013 13:45 5,2 C 88 % 1032,6 hPa 0,0 l/m 0,0 km/h (0 Bft) S-SO 157 3,4 C -0,4 C 0,0 km/h (0 Bft)
15.12.2013 13:50 5,1 C 88 % 1032,6 hPa 0,0 l/m 0,0 km/h (0 Bft) S-SO 157 3,3 C -0,4 C 0,0 km/h (0 Bft)
15.12.2013 13:55 5,0 C 87 % 1032,6 hPa 0,0 l/m 0,0 km/h (0 Bft) S-SO 157 3,0 C -0,4 C 0,0 km/h (0 Bft)
15.12.2013 14:00 5,0 C 86 % 1032,6 hPa 0,0 l/m 0,0 km/h (0 Bft) S-SO 157 2,9 C -0,4 C 0,0 km/h (0 Bft)
15.12.2013 14:05 4,4 C 86 % 1032,2 hPa 0,0 l/m 0,0 km/h (0 Bft) S-SO 157 2,3 C -0,4 C 0,0 km/h (0 Bft)
15.12.2013 14:10 4,4 C 87 % 1032,2 hPa 0,0 l/m 0,0 km/h (0 Bft) S-SO 157 2,4 C -0,4 C 0,0 km/h (0 Bft)
15.12.2013 14:15 4,5 C 87 % 1032,2 hPa 0,0 l/m 0,0 km/h (0 Bft) S-SO 157 2,5 C -0,4 C 0,0 km/h (0 Bft)
15.12.2013 14:20 4,7 C 87 % 1032,2 hPa 0,0 l/m 0,0 km/h (0 Bft) S-SO 157 2,7 C -0,4 C 0,0 km/h (0 Bft)
15.12.2013 14:25 4,8 C 88 % 1032,2 hPa 0,0 l/m 0,0 km/h (0 Bft) S-SO 157 3,0 C -0,4 C 0,0 km/h (0 Bft)
15.12.2013 14:30 4,8 C 89 % 1032,2 hPa 0,0 l/m 0,0 km/h (0 Bft) S-SO 157 3,1 C -0,4 C 0,0 km/h (0 Bft)
15.12.2013 14:35 5,0 C 89 % 1032,2 hPa 0,0 l/m 0,0 km/h (0 Bft) S-SO 157 3,3 C -0,4 C 0,0 km/h (0 Bft)
15.12.2013 14:40 4,9 C 88 % 1032,2 hPa 0,0 l/m 0,0 km/h (0 Bft) S-SO 157 3,1 C -0,4 C 0,0 km/h (0 Bft)
15.12.2013 14:45 5,0 C 88 % 1032,1 hPa 0,0 l/m 0,0 km/h (0 Bft) S-SO 157 3,2 C -0,4 C 0,0 km/h (0 Bft)
15.12.2013 14:50 5,0 C 89 % 1032,1 hPa 0,0 l/m 0,0 km/h (0 Bft) S-SO 157 3,3 C -0,4 C 0,0 km/h (0 Bft)
15.12.2013 14:55 5,1 C 89 % 1032,1 hPa 0,0 l/m 0,0 km/h (0 Bft) S-SO 157 3,4 C -0,4 C 0,0 km/h (0 Bft)
15.12.2013 15:00 4,9 C 88 % 1032,1 hPa 0,0 l/m 0,0 km/h (0 Bft) S-SO 157 3,1 C -0,4 C 0,0 km/h (0 Bft)
15.12.2013 15:04 4,9 C 88 % 1032,1 hPa 0,0 l/m 0,0 km/h (0 Bft) S-SO 157 3,1 C -0,4 C 0,0 km/h (0 Bft)
15.12.2013 15:05 4,9 C 88 % 1032,1 hPa 0,0 l/m 0,0 km/h (0 Bft) S-SO 157 3,1 C -0,4 C 0,0 km/h (0 Bft)
15.12.2013 15:10 4,6 C 88 % 1032,1 hPa 0,0 l/m 0,0 km/h (0 Bft) S-SO 157 2,8 C -0,4 C 0,0 km/h (0 Bft)
15.12.2013 15:15 4,5 C 89 % 1032,1 hPa 0,0 l/m 0,0 km/h (0 Bft) S-SO 157 2,8 C -0,4 C 0,0 km/h (0 Bft)
15.12.2013 15:20 4,3 C 88 % 1032,1 hPa 0,0 l/m 0,0 km/h (0 Bft) S-SO 157 2,5 C -0,4 C 0,0 km/h (0 Bft)
15.12.2013 15:25 4,1 C 88 % 1031,9 hPa 0,0 l/m 0,0 km/h (0 Bft) S-SO 157 2,3 C -0,4 C 0,0 km/h (0 Bft)
15.12.2013 15:30 4,1 C 88 % 1031,9 hPa 0,0 l/m 0,0 km/h (0 Bft) S-SO 157 2,3 C -0,4 C 0,0 km/h (0 Bft)
15.12.2013 15:35 4,1 C 87 % 1031,9 hPa 0,0 l/m 0,0 km/h (0 Bft) S-SO 157 2,1 C -0,4 C 0,0 km/h (0 Bft)
15.12.2013 15:40 4,1 C 87 % 1031,9 hPa 0,0 l/m 0,0 km/h (0 Bft) S-SO 157 2,1 C -0,4 C 0,0 km/h (0 Bft)
15.12.2013 15:45 4,1 C 87 % 1031,7 hPa 0,0 l/m 0,0 km/h (0 Bft) S-SO 157 2,1 C -0,4 C 0,0 km/h (0 Bft)
15.12.2013 15:50 3,9 C 88 % 1031,7 hPa 0,0 l/m 0,0 km/h (0 Bft) S-SO 157 2,1 C -0,4 C 0,0 km/h (0 Bft)
15.12.2013 15:55 4,0 C 87 % 1031,7 hPa 0,0 l/m 0,0 km/h (0 Bft) S-SO 157 2,0 C -0,4 C 0,0 km/h (0 Bft)
15.12.2013 16:00 3,5 C 88 % 1031,7 hPa 0,0 l/m 0,0 km/h (0 Bft) S-SO 157 1,7 C -0,4 C 0,0 km/h (0 Bft)
15.12.2013 16:05 3,4 C 88 % 1032,1 hPa 0,0 l/m 0,0 km/h (0 Bft) S-SO 157 1,6 C -0,4 C 0,0 km/h (0 Bft)
15.12.2013 16:10 3,1 C 87 % 1032,1 hPa 0,0 l/m 0,0 km/h (0 Bft) S-SO 157 1,2 C -0,4 C 0,0 km/h (0 Bft)
15.12.2013 16:15 2,3 C 87 % 1032,1 hPa 0,0 l/m 0,0 km/h (0 Bft) S-SO 157 0,4 C -0,4 C 0,0 km/h (0 Bft)
15.12.2013 16:20 2,1 C 87 % 1032,1 hPa 0,0 l/m 0,0 km/h (0 Bft) S-SO 157 0,2 C -0,4 C 0,0 km/h (0 Bft)
15.12.2013 16:25 1,5 C 87 % 1031,7 hPa 0,0 l/m 0,0 km/h (0 Bft) S-SO 157 -0,4 C -0,4 C 0,0 km/h (0 Bft)
15.12.2013 16:30 1,2 C 87 % 1031,7 hPa 0,0 l/m 0,0 km/h (0 Bft) S-SO 157 -0,7 C -0,4 C 0,0 km/h (0 Bft)
15.12.2013 16:35 1,0 C 88 % 1031,7 hPa 0,0 l/m 0,0 km/h (0 Bft) S-SO 157 -0,8 C -0,4 C 0,0 km/h (0 Bft)
15.12.2013 16:40 0,8 C 88 % 1031,7 hPa 0,0 l/m 0,0 km/h (0 Bft) S-SO 157 -1,0 C -0,4 C 0,0 km/h (0 Bft)
15.12.2013 16:45 0,7 C 89 % 1031,8 hPa 0,0 l/m 0,0 km/h (0 Bft) S-SO 157 -0,9 C -0,4 C 0,0 km/h (0 Bft)
15.12.2013 16:50 0,5 C 89 % 1031,8 hPa 0,0 l/m 0,0 km/h (0 Bft) S-SO 157 -1,1 C -0,4 C 0,0 km/h (0 Bft)
15.12.2013 16:55 0,1 C 89 % 1031,8 hPa 0,0 l/m 0,0 km/h (0 Bft) S-SO 157 -1,5 C -0,4 C 0,0 km/h (0 Bft)
15.12.2013 17:00 -0,3 C 89 % 1031,8 hPa 0,0 l/m 0,0 km/h (0 Bft) S-SO 157 -1,9 C -0,4 C 0,0 km/h (0 Bft)
15.12.2013 17:05 -0,2 C 89 % 1031,9 hPa 0,0 l/m 0,0 km/h (0 Bft) S-SO 157 -1,8 C -0,4 C 0,0 km/h (0 Bft)
15.12.2013 17:10 -0,6 C 89 % 1031,9 hPa 0,0 l/m 0,0 km/h (0 Bft) S-SO 157 -2,2 C -0,4 C 0,0 km/h (0 Bft)
15.12.2013 17:15 -0,6 C 89 % 1031,9 hPa 0,0 l/m 0,0 km/h (0 Bft) S-SO 157 -2,2 C -0,4 C 0,0 km/h (0 Bft)
15.12.2013 17:20 -0,6 C 90 % 1031,9 hPa 0,0 l/m 0,0 km/h (0 Bft) S-SO 157 -2,0 C -0,4 C 0,0 km/h (0 Bft)
15.12.2013 17:25 -1,1 C 90 % 1031,9 hPa 0,0 l/m 0,0 km/h (0 Bft) S-SO 157 -2,5 C -0,4 C 0,0 km/h (0 Bft)
15.12.2013 17:30 -1,2 C 90 % 1031,9 hPa 0,0 l/m 0,0 km/h (0 Bft) S-SO 157 -2,6 C -0,4 C 0,0 km/h (0 Bft)
15.12.2013 17:35 -1,2 C 90 % 1031,9 hPa 0,0 l/m 0,0 km/h (0 Bft) S-SO 157 -2,6 C -0,4 C 0,0 km/h (0 Bft)
15.12.2013 17:40 -1,3 C 91 % 1031,9 hPa 0,0 l/m 0,0 km/h (0 Bft) S-SO 157 -2,6 C -0,4 C 0,0 km/h (0 Bft)
15.12.2013 17:45 -1,1 C 91 % 1031,9 hPa 0,0 l/m 0,0 km/h (0 Bft) S-SO 157 -2,4 C -0,4 C 0,0 km/h (0 Bft)
15.12.2013 17:50 -1,3 C 91 % 1031,9 hPa 0,0 l/m 0,0 km/h (0 Bft) S-SO 157 -2,6 C -0,4 C 0,0 km/h (0 Bft)
15.12.2013 17:55 -1,5 C 91 % 1031,9 hPa 0,0 l/m 0,0 km/h (0 Bft) S-SO 157 -2,8 C -0,4 C 0,0 km/h (0 Bft)
15.12.2013 18:00 -1,5 C 91 % 1031,9 hPa 0,0 l/m 0,0 km/h (0 Bft) S-SO 157 -2,8 C -0,4 C 0,0 km/h (0 Bft)
15.12.2013 18:05 -1,3 C 92 % 1032,1 hPa 0,0 l/m 0,0 km/h (0 Bft) S-SO 157 -2,4 C -0,4 C 0,0 km/h (0 Bft)
15.12.2013 18:10 -1,3 C 92 % 1032,1 hPa 0,0 l/m 0,0 km/h (0 Bft) S-SO 157 -2,4 C -0,4 C 0,0 km/h (0 Bft)
15.12.2013 18:15 -1,5 C 92 % 1032,1 hPa 0,0 l/m 0,0 km/h (0 Bft) S-SO 157 -2,6 C -0,4 C 0,0 km/h (0 Bft)
15.12.2013 18:20 -1,7 C 92 % 1032,1 hPa 0,0 l/m 0,0 km/h (0 Bft) S-SO 157 -2,8 C -0,4 C 0,0 km/h (0 Bft)
15.12.2013 18:25 -1,7 C 92 % 1032,0 hPa 0,0 l/m 0,0 km/h (0 Bft) S-SO 157 -2,8 C -0,4 C 0,0 km/h (0 Bft)
15.12.2013 18:30 -2,1 C 92 % 1032,0 hPa 0,0 l/m 0,0 km/h (0 Bft) S-SO 157 -3,2 C -0,4 C 0,0 km/h (0 Bft)
15.12.2013 18:35 -2,1 C 92 % 1032,0 hPa 0,0 l/m 0,0 km/h (0 Bft) S-SO 157 -3,2 C -0,4 C 0,0 km/h (0 Bft)
15.12.2013 18:40 -2,1 C 92 % 1032,0 hPa 0,0 l/m 0,0 km/h (0 Bft) S-SO 157 -3,2 C -0,4 C 0,0 km/h (0 Bft)
15.12.2013 18:45 -1,9 C 92 % 1032,0 hPa 0,0 l/m 0,0 km/h (0 Bft) S-SO 157 -3,0 C -0,4 C 0,0 km/h (0 Bft)
15.12.2013 18:50 -1,9 C 92 % 1032,0 hPa 0,0 l/m 0,0 km/h (0 Bft) S-SO 157 -3,0 C -0,4 C 0,0 km/h (0 Bft)
15.12.2013 18:55 -1,6 C 92 % 1032,0 hPa 0,0 l/m 0,0 km/h (0 Bft) S-SO 157 -2,7 C -0,4 C 0,0 km/h (0 Bft)
15.12.2013 19:00 -1,7 C 92 % 1032,0 hPa 0,0 l/m 0,0 km/h (0 Bft) S-SO 157 -2,8 C -0,4 C 0,0 km/h (0 Bft)
15.12.2013 19:05 -1,5 C 92 % 1032,1 hPa 0,0 l/m 0,0 km/h (0 Bft) S-SO 157 -2,6 C -0,4 C 0,0 km/h (0 Bft)
15.12.2013 19:10 -1,9 C 92 % 1032,1 hPa 0,0 l/m 0,0 km/h (0 Bft) S-SO 157 -3,0 C -0,4 C 0,0 km/h (0 Bft)
15.12.2013 19:15 -1,6 C 92 % 1032,1 hPa 0,0 l/m 0,0 km/h (0 Bft) S-SO 157 -2,7 C -0,4 C 0,0 km/h (0 Bft)
15.12.2013 19:20 -1,8 C 92 % 1032,1 hPa 0,0 l/m 0,0 km/h (0 Bft) S-SO 157 -2,9 C -0,4 C 0,0 km/h (0 Bft)
15.12.2013 19:25 -1,6 C 92 % 1032,1 hPa 0,0 l/m 0,0 km/h (0 Bft) S-SO 157 -2,7 C -0,4 C 0,0 km/h (0 Bft)
15.12.2013 19:30 -1,8 C 92 % 1032,1 hPa 0,0 l/m 0,0 km/h (0 Bft) S-SO 157 -2,9 C -0,4 C 0,0 km/h (0 Bft)
15.12.2013 19:35 -1,7 C 92 % 1032,1 hPa 0,0 l/m 0,0 km/h (0 Bft) S-SO 157 -2,8 C -0,4 C 0,0 km/h (0 Bft)
15.12.2013 19:40 -1,7 C 92 % 1032,1 hPa 0,0 l/m 0,0 km/h (0 Bft) S-SO 157 -2,8 C -0,4 C 0,0 km/h (0 Bft)
15.12.2013 19:45 -1,7 C 92 % 1032,2 hPa 0,0 l/m 0,0 km/h (0 Bft) S-SO 157 -2,8 C -0,4 C 0,0 km/h (0 Bft)
15.12.2013 19:50 -1,0 C 92 % 1032,2 hPa 0,0 l/m 0,0 km/h (0 Bft) S-SO 157 -2,1 C -0,4 C 0,0 km/h (0 Bft)
15.12.2013 19:55 -0,6 C 92 % 1032,2 hPa 0,0 l/m 0,0 km/h (0 Bft) S-SO 157 -1,7 C -0,4 C 0,0 km/h (0 Bft)
15.12.2013 20:00 -0,6 C 91 % 1032,2 hPa 0,0 l/m 0,0 km/h (0 Bft) S-SO 157 -1,9 C -0,4 C 0,0 km/h (0 Bft)
15.12.2013 20:04 -1,0 C 91 % 1032,1 hPa 0,0 l/m 0,0 km/h (0 Bft) S-SO 157 -2,3 C -0,4 C 0,0 km/h (0 Bft)
15.12.2013 20:05 -1,0 C 91 % 1032,1 hPa 0,0 l/m 0,0 km/h (0 Bft) S-SO 157 -2,3 C -0,4 C 0,0 km/h (0 Bft)
15.12.2013 20:10 -1,1 C 91 % 1032,1 hPa 0,0 l/m 0,0 km/h (0 Bft) S-SO 157 -2,4 C -0,4 C 0,0 km/h (0 Bft)
15.12.2013 20:15 -0,6 C 91 % 1032,1 hPa 0,0 l/m 0,0 km/h (0 Bft) S-SO 157 -1,9 C -0,4 C 0,0 km/h (0 Bft)
15.12.2013 20:20 -1,0 C 90 % 1032,1 hPa 0,0 l/m 0,0 km/h (0 Bft) S-SO 157 -2,4 C -0,4 C 0,0 km/h (0 Bft)
15.12.2013 20:25 -1,0 C 90 % 1032,1 hPa 0,0 l/m 0,0 km/h (0 Bft) S-SO 157 -2,4 C -0,4 C 0,0 km/h (0 Bft)
15.12.2013 20:30 -1,4 C 90 % 1032,1 hPa 0,0 l/m 0,0 km/h (0 Bft) S-SO 157 -2,8 C -0,4 C 0,0 km/h (0 Bft)
15.12.2013 20:35 -1,8 C 90 % 1032,1 hPa 0,0 l/m 0,0 km/h (0 Bft) S-SO 157 -3,2 C -0,4 C 0,0 km/h (0 Bft)
15.12.2013 20:40 -1,8 C 89 % 1032,1 hPa 0,0 l/m 0,0 km/h (0 Bft) S-SO 157 -3,4 C -0,4 C 0,0 km/h (0 Bft)
15.12.2013 20:45 -1,9 C 89 % 1032,1 hPa 0,0 l/m 0,0 km/h (0 Bft) S-SO 157 -3,5 C -0,4 C 0,0 km/h (0 Bft)
15.12.2013 20:50 -1,9 C 89 % 1032,1 hPa 0,0 l/m 0,0 km/h (0 Bft) S-SO 157 -3,5 C -0,4 C 0,0 km/h (0 Bft)
15.12.2013 20:55 -2,1 C 89 % 1032,1 hPa 0,0 l/m 0,0 km/h (0 Bft) S-SO 157 -3,7 C -0,4 C 0,0 km/h (0 Bft)
15.12.2013 21:00 -2,0 C 89 % 1032,1 hPa 0,0 l/m 0,0 km/h (0 Bft) S-SO 157 -3,6 C -0,4 C 0,0 km/h (0 Bft)
15.12.2013 21:05 -1,7 C 89 % 1032,0 hPa 0,0 l/m 0,0 km/h (0 Bft) S-SO 157 -3,3 C -0,4 C 0,0 km/h (0 Bft)
15.12.2013 21:10 -2,0 C 89 % 1032,0 hPa 0,0 l/m 0,0 km/h (0 Bft) S-SO 157 -3,6 C -0,4 C 0,0 km/h (0 Bft)
15.12.2013 21:15 -2,2 C 89 % 1032,0 hPa 0,0 l/m 0,0 km/h (0 Bft) S-SO 157 -3,8 C -0,4 C 0,0 km/h (0 Bft)
15.12.2013 21:20 -2,2 C 89 % 1032,0 hPa 0,0 l/m 0,0 km/h (0 Bft) S-SO 157 -3,8 C -0,4 C 0,0 km/h (0 Bft)
15.12.2013 21:25 -2,4 C 89 % 1032,1 hPa 0,0 l/m 0,0 km/h (0 Bft) S-SO 157 -4,0 C -0,4 C 0,0 km/h (0 Bft)
15.12.2013 21:30 -2,3 C 89 % 1032,1 hPa 0,0 l/m 0,0 km/h (0 Bft) S-SO 157 -3,9 C -0,4 C 0,0 km/h (0 Bft)
15.12.2013 21:35 -2,3 C 89 % 1032,1 hPa 0,0 l/m 0,0 km/h (0 Bft) S-SO 157 -3,9 C -0,4 C 0,0 km/h (0 Bft)
15.12.2013 21:40 -2,3 C 89 % 1032,1 hPa 0,0 l/m 0,0 km/h (0 Bft) S-SO 157 -3,9 C -0,4 C 0,0 km/h (0 Bft)
15.12.2013 21:45 -2,2 C 89 % 1032,2 hPa 0,0 l/m 0,0 km/h (0 Bft) S-SO 157 -3,8 C -0,4 C 0,0 km/h (0 Bft)
15.12.2013 21:50 -2,3 C 89 % 1032,2 hPa 0,0 l/m 0,0 km/h (0 Bft) S-SO 157 -3,9 C -0,4 C 0,0 km/h (0 Bft)
15.12.2013 21:55 -2,4 C 89 % 1032,2 hPa 0,0 l/m 0,0 km/h (0 Bft) S-SO 157 -4,0 C -0,4 C 0,0 km/h (0 Bft)
15.12.2013 22:00 -2,2 C 89 % 1032,2 hPa 0,0 l/m 0,0 km/h (0 Bft) S-SO 157 -3,8 C -0,4 C 0,0 km/h (0 Bft)
15.12.2013 22:05 -2,5 C 89 % 1032,2 hPa 0,0 l/m 0,0 km/h (0 Bft) S-SO 157 -4,1 C -0,4 C 0,0 km/h (0 Bft)
15.12.2013 22:10 -2,5 C 89 % 1032,2 hPa 0,0 l/m 0,0 km/h (0 Bft) S-SO 157 -4,1 C -0,4 C 0,0 km/h (0 Bft)
15.12.2013 22:15 -2,3 C 89 % 1032,2 hPa 0,0 l/m 0,0 km/h (0 Bft) S-SO 157 -3,9 C -0,4 C 0,0 km/h (0 Bft)
15.12.2013 22:20 -2,5 C 89 % 1032,2 hPa 0,0 l/m 0,0 km/h (0 Bft) S-SO 157 -4,1 C -0,4 C 0,0 km/h (0 Bft)
15.12.2013 22:25 -2,5 C 89 % 1032,3 hPa 0,0 l/m 0,0 km/h (0 Bft) S-SO 157 -4,1 C -0,4 C 0,0 km/h (0 Bft)
15.12.2013 22:30 -2,4 C 89 % 1032,3 hPa 0,0 l/m 0,0 km/h (0 Bft) S-SO 157 -4,0 C -0,4 C 0,0 km/h (0 Bft)
15.12.2013 22:35 -2,8 C 89 % 1032,3 hPa 0,0 l/m 0,0 km/h (0 Bft) S-SO 157 -4,4 C -0,4 C 0,0 km/h (0 Bft)
15.12.2013 22:40 -3,0 C 89 % 1032,3 hPa 0,0 l/m 0,0 km/h (0 Bft) S-SO 157 -4,6 C -0,4 C 0,0 km/h (0 Bft)
15.12.2013 22:45 -2,3 C 89 % 1032,5 hPa 0,0 l/m 0,0 km/h (0 Bft) S-SO 157 -3,9 C -0,4 C 0,0 km/h (0 Bft)
15.12.2013 22:50 -2,6 C 89 % 1032,5 hPa 0,0 l/m 0,0 km/h (0 Bft) S-SO 157 -4,2 C -0,4 C 0,0 km/h (0 Bft)
15.12.2013 22:55 -2,3 C 89 % 1032,5 hPa 0,0 l/m 0,0 km/h (0 Bft) S-SO 157 -3,9 C -0,4 C 0,0 km/h (0 Bft)
15.12.2013 23:00 -2,6 C 89 % 1032,5 hPa 0,0 l/m 0,0 km/h (0 Bft) S-SO 157 -4,2 C -0,4 C 0,0 km/h (0 Bft)
15.12.2013 23:05 -2,7 C 89 % 1032,2 hPa 0,0 l/m 0,0 km/h (0 Bft) S-SO 157 -4,3 C -0,4 C 0,0 km/h (0 Bft)
15.12.2013 23:10 -2,6 C 89 % 1032,2 hPa 0,0 l/m 0,0 km/h (0 Bft) S-SO 157 -4,2 C -0,4 C 0,0 km/h (0 Bft)
15.12.2013 23:15 -2,4 C 89 % 1032,2 hPa 0,0 l/m 0,0 km/h (0 Bft) S-SO 157 -4,0 C -0,4 C 0,0 km/h (0 Bft)
15.12.2013 23:20 -2,3 C 89 % 1032,2 hPa 0,0 l/m 0,0 km/h (0 Bft) S-SO 157 -3,9 C -0,4 C 0,0 km/h (0 Bft)
15.12.2013 23:25 -2,4 C 89 % 1032,2 hPa 0,0 l/m 0,0 km/h (0 Bft) S-SO 157 -4,0 C -0,4 C 0,0 km/h (0 Bft)
15.12.2013 23:30 -2,1 C 89 % 1032,2 hPa 0,0 l/m 0,0 km/h (0 Bft) S-SO 157 -3,7 C -0,4 C 0,0 km/h (0 Bft)
15.12.2013 23:35 -2,3 C 89 % 1032,2 hPa 0,0 l/m 0,0 km/h (0 Bft) S-SO 157 -3,9 C -0,4 C 0,0 km/h (0 Bft)
15.12.2013 23:40 -2,5 C 89 % 1032,2 hPa 0,0 l/m 0,0 km/h (0 Bft) S-SO 157 -4,1 C -0,4 C 0,0 km/h (0 Bft)
15.12.2013 23:45 -1,9 C 89 % 1032,3 hPa 0,0 l/m 0,0 km/h (0 Bft) S-SO 157 -3,5 C -0,4 C 0,0 km/h (0 Bft)
15.12.2013 23:50 -2,1 C 89 % 1032,3 hPa 0,0 l/m 0,0 km/h (0 Bft) S-SO 157 -3,7 C -0,4 C 0,0 km/h (0 Bft)
15.12.2013 23:55 -2,5 C 89 % 1032,3 hPa 0,0 l/m 0,0 km/h (0 Bft) S-SO 157 -4,1 C -0,4 C 0,0 km/h (0 Bft)
_ Min-Zeit 07:55 11:40 06:40 - 23:55 - - 07:55 23:55 23:55
Minimum _ -4,9 C 73 % 1031,3 hPa - 0,0 km/h (0 Bft) - - -5,6 C -0,4 C 0,0 km/h (0 Bft)
_ Max-Zeit 13:45 03:35 00:00 23:55 23:55 - - 14:55 23:55 23:55
Maximum _ 5,2 C 97 % 1033,4 hPa 0,0 l/m 0,0 km/h
S-SO (0 Bft)
- - 3,4 C -0,4 C 0,0 km/h
S-SO (0 Bft)
Durchschnitt _ -0,6 C 91 % 1032,0 hPa #0,0 l/m 0,0 km/h (0 Bft) - - - -1,8 C -0,4 C 0,0 km/h (0 Bft)